Location: Deuil
(48.9767°N, 2.3272°E)
Time: 10:55:48
(UTC+00:00)

IRS-1C Rocket - Pass Details

Date: 24 October 2021
Orbit: 801 x 805 km, 98.9° (Epoch: 30 November)

Event Time Altitude Azimuth Distance (km) Brightness Sun altitude
Exits shadow 18:45:19 - 161° (SSE) 2,467 6.4 -20.6°
Reaches altitude 10° 18:45:33 10° 161° (SSE) 2,374 6.3 -20.6°
Maximum altitude 18:50:48 87° 73° (ENE) 812 4.0 -21.5°
Drops below altitude 10° 18:56:07 10° 346° (NNW) 2,395 6.8 -22.3°
Sets 18:58:27 0° 346° (NNW) 3,330 7.6 -22.7°
